Find Shiyan 9

NORAD ID: 47851 Int'l Des: 2021-019 Owner: CAST Country: CN operational
HEOCIRCULARGSO

Live Position

Loading 3D Globe...

About Shiyan 9

Description loading...

Upcoming Passes

Passes for default location (London). Set your location on the main map for personalized predictions.

Altitude History

Loading altitude history...

Two-Line Element Set

1 47851U 21019A 26103.90261205 -.00000233 00000-0 00000-0 0 9994
2 47851 16.6703 303.2715 0014739 30.0226 340.5815 1.00268379 23498
Epoch: Apr 13, 2026 • Age: 17 hours

Current Status

Altitude 35820.8 km
Velocity 3.07 km/s
Sub-Earth Point -16.66°S, 146.78°E
Launch Date Mar 11, 2021
Age 5 years
Type other

Technical Details

Classification Payload
Mass 5000.00 kg
Dry Mass 3000.00 kg
Total Mass 5000.00 kg
Length 5.00 m
Diameter 3.00 m
Span 9.00 m
Shape Box + 2 pan
Manufacturer CAST
Bus Type XYZ
Phase Status In Orbit
Owner/State CAST/CN

Most Searched